Back to catalog

USA 155

AliveMilitaryGEO
NORAD 26635·PAYLOAD·🇺🇸 United States

Launched Dec 6, 2000 from Cape Canaveral Space Force Station

Loading…

TLE

FreshSource: Mike McCants

Epoch: Sep 14, 2026, 18:21 UTC

1 26635U 00080A   26257.76496270  .00000000  00000-0  00000-0 0    06
2 26635  11.3875  19.7224 0006557 232.4955 127.4540  1.00273100 20703

Track USA 155 in real time with AllMySat

Download on the App Store